941  
ASUS42 KILM 231413  
RWRILM  
RWRILM  
REGIONAL HOURLY WEATHER ROUNDUP  
NATIONAL WEATHER SERVICE WILMINGTON NC  
1000 AM EDT SAT SEP 23 2017  
 
NOTE: "FAIR" INDICATES FEW OR NO CLOUDS BELOW 12,000 FEET WITH NO  
SIGNIFICANT WEATHER AND/OR S TO VISIBILITY
.  
   
..............WFO WILMINGTON COUNTY WARNING AREA............
 
 
   
.....COASTAL NC AND SC COUNTIES...
 
 
 
CITY SKY/WX TMP DP RH WIND PRES REMARKS
 
WILMINGTON MOSUNNY 79 71 76 CALM 30.04S  
N MYRTLE BEACH MOSUNNY 75 73 93 N8 30.04R  
MYRTLE BEACH MOSUNNY 77 72 84 N7 30.06R  
   
.....INLAND NC AND SC COUNTIES....
 
 
 
CITY SKY/WX TMP DP RH WIND PRES REMARKS
 
LUMBERTON SUNNY 78 70 76 NE3 30.05R  
ELIZABETHTOWN NOT AVBL  
WHITEVILLE SUNNY 74 71 88 CALM 30.05R  
FLORENCE SUNNY 78 69 73 NE5 30.05S  
DARLINGTON MOSUNNY 77 69 76 N5 30.06R  
KINGSTREE FAIR 77 70 78 CALM 30.05R  
HARTSVILLE FAIR 79 66 65 N3 30.06R  
BENNETTSVILLE FAIR 79 70 73 CALM 30.05S  
CONWAY PTSUNNY 72 72 100 CALM 30.05S FOG  
GEORGETOWN FAIR 77 75 94 NE6 30.05R  
MARION FAIR 77 70 78 N3 30.05S  
   
...................REST OF NORTH CAROLINA...................
 
 
   
........EASTERN NC......
 
 
 
CITY SKY/WX TMP DP RH WIND PRES REMARKS
 
CAPE HATTERAS PTSUNNY 80 70 71 CALM 30.04R  
JACKSONVILLE SUNNY 78 69 73 NE8 30.05R  
MOREHEAD CITY SUNNY 80 71 74 N8 30.04R  
KENANSVILLE MOSUNNY 75 70 83 N3 30.06R  
NEW BERN MOSUNNY 76 70 82 N6 30.06R  
ELIZABETH CITY SUNNY 78 69 73 N6 30.05R  
   
........CENTRAL NC......
 
 
 
CITY SKY/WX TMP DP RH WIND PRES REMARKS
 
RALEIGH DURHAM MOSUNNY 76 68 76 N5 30.08S  
ROCKY MOUNT SUNNY 77 68 73 N5 30.07R  
ROANOKE RAPIDS NOT AVBL  
FAYETTEVILLE SUNNY 79 69 71 NE3 30.05R  
HOFFMAN SUNNY 77 67 70 N3 30.06R  
   
........WESTERN NC......
 
 
 
CITY SKY/WX TMP DP RH WIND PRES REMARKS
 
CHARLOTTE MOSUNNY 79 68 69 VRB3 30.09R  
GREENSBORO MOSUNNY 76 68 76 NE3 30.10R  
HICKORY NOT AVBL  
BOONE NOT AVBL  
ASHEVILLE NOT AVBL  
   
....................REST OF SOUTH CAROLINA..................
 
 
   
........EASTERN SC......
 
 
 
CITY SKY/WX TMP DP RH WIND PRES REMARKS
 
CHARLESTON MOSUNNY 78 74 87 NE10 30.03S  
BEAUFORT MCAS PTSUNNY 79 76 90 N6 30.03R  
HILTON HEAD MOSUNNY 81 75 83 NE9 30.02S  
   
........CENTRAL SC......
 
 
 
CITY SKY/WX TMP DP RH WIND PRES REMARKS
 
COLUMBIA SUNNY 78 70 76 CALM 30.05R  
ORANGEBURG SUNNY 79 67 66 NE7 30.05R  
SUMTER SHAW SUNNY 80 69 70 N3 30.03R  
   
........WESTERN SC......
 
 
 
CITY SKY/WX TMP DP RH WIND PRES REMARKS
 
GREENVILLE NOT AVBL  
ROCK HILL N/A N/A N/A N/A MISG 30.09R  
ANDERSON SUNNY 78 68 71 E5 30.08R  
CLEMSON NOT AVBL  
GREENWOOD SUNNY 77 70 79 NE3 30.08S  
 
   
..................COASTAL AND OFFSHORE REPORTS...............
 
 
   
...............LOCAL PIERS AND NC RESERVE.............
 
 
 
STATION/POSITION TIME SKY/WX TEMP WIND PRES VSBY
 
AIR SEA DIR/SP/G  
(UTC) (F) (DEG/KT/KT) (MB) (MI)  
JOHNY MRCER PIER 1342 77 81 340/ 2/ 4 1016.4R  
NC RESRV MASNBRO 1245 72 CALM 1017.0  
OCEAN CREST PIER NOT AVBL  
SPRINGMAID PIER 1342 1016.6R  
 
   
...............COASTAL AND OFFSHORE BUOYS.............
 
 
 
STATION/POSITION TIME SKY/WX TEMP WIND PRES VSBY
 
AIR SEA DIR/SP/G  
(UTC) (F) (DEG/KT/KT) (MB) (MI)  
DIMNDSHOAL 41025 1350 76 76 50/ 6/ 8 1016.9R  
WVE H/P(F/S)= 8/12 SWL H/P/D(F/S/D)= 8/160/12  
 
CAPE LOOKOUT 1400 77 340/ 5/ 7 1016.9R  
ONSLOW BAY 41036 NOT AVBL  
ONSLOW BAY 41064 1308 78 350/ 6/ 10 1016.6R  
ONSLOW BAY 41159 NOT AVBL  
MASNBO INL 41110 1359 79 N/A  
WVE H/P(F/S)= 4/11 SWL H/P/D(F/S/D)= 3/130/11  
 
WILM HARBR 41108 1400 80 N/A  
WVE H/P(F/S)= 4/12 SWL H/P/D(F/S/D)= 3/150/12  
 
27SE WRITB 41037 1308 78 80 10/ 10/ 14 1016.8R  
FRYING PAN 41013 1400 80 82 20/ 14/ 16 1016.5  
SUNST NRSH 41024 1308 73 80 30/ 6/ 8 1017.0R  
CAPRS NRSH 41029 1308 77 81 40/ 12/ 17 1016.0R  
EDISTO 41004 1350 80 82 40/ 14/ 17 1015.9R  
WVE H/P(F/S)= 6/11 SWL H/P/D(F/S/D)= 5/140/11  
 
   
.........OFFSHORE BUOYS BEYOND 100 NM OFFSHORE........
 
   
....IN A TRIANGLE---HAT TO BERMUDA TO BAHAMAS TO HAT..
 
 
 
 
STATION/POSITION TIME SKY/WX TEMP WIND PRES VSBY
 
AIR SEA DIR/SP/G  
(UTC) (F) (DEG/KT/KT) (MB) (MI)  
150E HAT 41001 NOT AVBL  
W BERMUDA 41048 1400 80 81 80/ 10/ 12 1016.2  
ATLANTIC S 41049 1350 82 83 120/ 12/ 14 1017.4R  
WVE H/P(F/S)= 7/11 SWL H/P/D(F/S/D)= 7/340/11  
 
E BAHAMAS 41046 1400 83 84 170/ 25/ 35 1009.8  
NE BAHAMAS 41047 1400 82 83 90/ 31/ 41 1005.2  
120E CANVRL41010 1350 60/ 16/ 21 1013.8R  
WVE H/P(F/S)= 10/15 SWL H/P/D(F/S/D)= 8/15  
 
END  
 
 
CLICK HERE TO GO TO PREVIOUS BULLETINS.

The Nexlab NC Page
The Nexlab SC Page Main Text Page